Weather History for New Orleans NAS, LA

Change the Weather History Date:

Tuesday, March 5, 2013

  Actual Average Record
Temperature  
Mean Temperature 70 °F -  
Max Temperature 77 °F 67 °F 79 °F (1997)
Min Temperature 61 °F 51 °F 32 °F (2007)
Cooling Degree Days 4    
Growing Degree Days 20 (Base 50)    
Moisture  
Dew Point 53 °F    
Average Humidity 57    
Maximum Humidity 77    
Minimum Humidity 33    
Precipitation  
Precipitation 0.00 in - - ()
Sea Level Pressure  
Sea Level Pressure 30.05 in    
Wind  
Wind Speed 11 mph (WNW)    
Max Wind Speed 18 mph    
Max Gust Speed 25 mph    
Visibility 9 miles    
Events      
Averages and records for this station are not official NWS values.
T = Trace of Precipitation, MM = Missing Value Source: NWS Daily Summary

Daily Weather History Graph

Daily Weather History Graph

Search for Another Location

Airport:

Trip Planner

Search our weather history database for the weather conditions in past years. The results will help you decide how hot, cold, wet, or windy it might be!

Date:

Astronomy

Mar. 05, 2013 Rise Set
Actual Time 6:21 AM CST 6:02 PM CST
Civil Twilight 5:57 AM CST 6:26 PM CST
Nautical Twilight 5:29 AM CST 6:53 PM CST
Astronomical Twilight 5:02 AM CST 7:21 PM CST
Moon 1:14 AM CST (3/5) 12:00 PM CST (3/5)
Length of Visible Light 12h 28m
Length of Day
11h 41m
Last Quarter, 40% of the Moon is Illuminated
Mar 5
Last Quarter
Mar 11
New
Mar 19
First Quarter
Mar 27
Full
Apr 2
Last Quarter

Hourly Weather History & Observations

Time (CST) Temp. Dew Point Humidity Pressure Visibility Wind Dir Wind Speed Gust Speed Precip Events Conditions
12:55 AM - - N/A% 29.99 in - North - - N/A   Unknown
2:55 AM - - N/A% 29.99 in - North - - N/A   Unknown
3:55 AM - - N/A% 29.99 in - North - - N/A   Unknown
4:55 AM - - N/A% 29.99 in - North - - N/A   Unknown
5:55 AM - - N/A% 29.99 in - North - - N/A   Unknown
6:14 AM 62.6 °F 55.4 °F 77% 29.98 in 7.0 mi South 8.1 mph - N/A   Overcast
6:55 AM 62.6 °F 54.9 °F 76% 30.00 in 7.0 mi West 8.1 mph - N/A   Overcast
7:55 AM 63.1 °F 55.9 °F 77% 30.08 in 6.0 mi West 8.1 mph - N/A   Haze
8:55 AM 66.4 °F 58.3 °F 75% 30.07 in 8.0 mi West 8.1 mph - N/A   Mostly Cloudy
9:55 AM 70.9 °F 59.9 °F 68% 30.06 in 8.0 mi West 13.8 mph 23.0 mph N/A   Mostly Cloudy
10:55 AM 73.0 °F 59.9 °F 63% 30.05 in 8.0 mi West 15.0 mph 24.2 mph N/A   Mostly Cloudy
11:55 AM 76.3 °F 60.8 °F 59% 30.04 in 8.0 mi West 17.3 mph 25.3 mph N/A   Overcast
12:55 PM 73.4 °F 60.8 °F 65% 30.02 in 8.0 mi West 15.0 mph 23.0 mph N/A   Overcast
1:55 PM 74.1 °F 61.7 °F 65% 30.01 in 8.0 mi West 16.1 mph - N/A   Overcast
2:55 PM 76.1 °F 61.2 °F 60% 30.01 in 10.0 mi West 18.4 mph - N/A   Mostly Cloudy
3:55 PM 77.4 °F 59.4 °F 54% 30.01 in 10.0 mi WNW 15.0 mph - N/A   Mostly Cloudy
4:55 PM 74.7 °F 57.2 °F 54% 30.02 in 10.0 mi WNW 9.2 mph - N/A   Mostly Cloudy
5:55 PM 72.5 °F 47.3 °F 41% 30.05 in 10.0 mi NW 11.5 mph - N/A   Mostly Cloudy
6:55 PM 68.9 °F 41.4 °F 37% 30.08 in 10.0 mi NNW 9.2 mph - N/A   Mostly Cloudy
7:55 PM 66.6 °F 36.5 °F 33% 30.11 in 10.0 mi NW 11.5 mph - N/A   Mostly Cloudy
8:55 PM 65.3 °F 37.8 °F 36% 30.15 in 10.0 mi NNW 13.8 mph - N/A   Mostly Cloudy
9:55 PM 63.5 °F 38.1 °F 39% 30.17 in 10.0 mi NNW 9.2 mph - N/A   Partly Cloudy
10:55 PM 61.2 °F 38.7 °F 43% 30.19 in 10.0 mi NNW 10.4 mph - N/A   Partly Cloudy
11:55 PM - - N/A% 30.22 in - North - - N/A   Unknown